This is the latest recevied weather packets stored in our database for station/object I3RKE-10. If no packets are shown the sender has not sent any weather packets the latest 10 day(s).
| Time | Temp. | Humidity | Pressure | Rain* | Wind** | Luminosity | Snow |
|---|---|---|---|---|---|---|---|
| 1778009221 | 14.44° C | 86% | 1007.6 hPa | - | - | - | - |
| 1778008321 | 13.89° C | 85% | 1007.6 hPa | - | - | - | - |
| 1778007421 | 13.89° C | 86% | 1007.5 hPa | - | - | - | - |
| 1778006521 | 14.44° C | 86% | 1007.4 hPa | - | - | - | - |
| 1778005621 | 13.89° C | 85% | 1007.4 hPa | - | - | - | - |
| 1778004721 | 14.44° C | 85% | 1007.2 hPa | - | - | - | - |
| 1778003820 | 14.44° C | 85% | 1007.2 hPa | - | - | - | - |
| 1778002920 | 14.44° C | 85% | 1007.1 hPa | - | - | - | - |
| 1778002021 | 14.44° C | 85% | 1007.2 hPa | - | - | - | - |
| 1778001120 | 14.44° C | 85% | 1007.3 hPa | - | - | - | - |
| 1777999320 | 14.44° C | 85% | 1007.5 hPa | - | - | - | - |
| 1777998420 | 14.44° C | 84% | 1007.5 hPa | - | - | - | - |
| 1777997520 | 14.44° C | 86% | 1007.6 hPa | - | - | - | - |
| 1777996620 | 14.44° C | 85% | 1007.7 hPa | - | - | - | - |
| 1777995720 | 14.44° C | 84% | 1007.7 hPa | - | - | - | - |
| 1777994820 | 15° C | 84% | 1007.7 hPa | - | - | - | - |
| 1777993952 | 15° C | 82% | 1007.7 hPa | - | - | - | - |
| 1777993919 | 15° C | 82% | 1007.7 hPa | - | - | - | - |
| 1777993019 | 15° C | 82% | 1007.6 hPa | - | - | - | - |
| 1777992119 | 15° C | 82% | 1007.7 hPa | - | - | - | - |
| 1777991219 | 14.44° C | 82% | 1007.9 hPa | - | - | - | - |
| 1777989419 | 15° C | 79% | 1008.1 hPa | - | - | - | - |
| 1777988519 | 15.56° C | 79% | 1008.3 hPa | - | - | - | - |
| 1777987619 | 15° C | 77% | 1008.5 hPa | - | - | - | - |
| 1777986719 | 15.56° C | 76% | 1008.6 hPa | - | - | - | - |
* Rain since midnight (hover to see other rain measurements)
** Current wind speed in m/s (hover to see current wind gust speed)